Regional Weather Roundup
Issued by NWS Jackson, KY

Home | Current Version | Previous Version | Graphics & Text | Print | Product List | Glossary On
Versions: 1 2 3 4 5 6 7 8 9 10 11 12 13 14 15 16 17 18 19 20 21 22 23 24 25 26 27 28 29 30 31 32 33 34 35 36 37 38 39 40 41 42 43 44 45 46 47 48 49 50
000
ASUS43 KJKL 250310
RWRJKL

EAST KENTUCKY HOURLY WEATHER ROUNDUP
NATIONAL WEATHER SERVICE JACKSON KY
1100 PM EDT THU JUL 24 2014

NOTE: "FAIR" INDICATES FEW OR NO CLOUDS BELOW 12,000 FEET WITH
NO SIGNIFICANT WEATHER AND/OR OBSTRUCTIONS TO VISIBILITY.

* THESE REPORTS ARE NOT UNDER NWS QUALITY CONTROL AND MAY NOT
  REPORT WEATHER SUCH AS PRECIPITATION AND FOG.

KYZ079-080-083-085-087-088-110-112-115-119-120-250400
...EASTERN KENTUCKY...

CITY           SKY/WX    TMP DP  RH WIND       PRES   REMARKS
JACKSON        CLEAR     64  61  90 CALM      30.08R FOG
LONDON         CLEAR     63  60  90 CALM      30.07R
SOMERSET*      CLEAR     63  63 100 CALM      30.08R FOG
MONTICELLO*    CLEAR     61  60  96 CALM      30.08R FOG
WILLIAMSBURG*    N/A     63  63 100 CALM      30.07
MIDDLESBORO*   CLEAR     62  61  97 CALM      30.07R
HARLAN APT*    CLEAR     61  61 100 MISG      30.08R
BLACK MTN*       N/A     55  55 100 N7          N/A
PIKEVILLE APT* FOG       61  61 100 CALM      30.08R VSB 0
BIG SANDY*     FOG       62  61  99 CALM      30.08R VSB 3/4
MOREHEAD APT*  MOCLDY    64  59  82 CALM      30.09
$$

KYZ035-036-041-042-044-050-067-078-099-250400
...CENTRAL KENTUCKY...

CITY           SKY/WX    TMP DP  RH WIND       PRES   REMARKS
MT STERLING*   CLOUDY    66  57  72 CALM      30.08R
FLEMING/MASON* PTCLDY    66  57  72 CALM      30.08S
DANVILLE*      CLOUDY    64  61  88 CALM      30.08R
RICHMOND*      MOCLDY    66  61  82 CALM      30.07R
LEXINGTON      MOCLDY    67  55  65 N3        30.08R
FRANKFORT      CLOUDY    69  57  65 VRB5      30.07R
$$

KYZ091>093-OHZ055-061-077-WVZ005-015-034-035-042-250400
...SOUTHERN OHIO/WEST VIRGINIA...

CITY           SKY/WX    TMP DP  RH WIND       PRES   REMARKS
COVINGTON      MOCLDY    69  53  56 N8        30.09R
COLUMBUS       PTCLDY    66  51  58 N8        30.08R
DAYTON         CLEAR     61  52  72 NE7       30.10R
WILMINGTON     CLEAR     60  54  80 N6        30.08S
HUNTINGTON     CLOUDY    65  64  97 CALM      30.05R
CHARLESTON     CLEAR     63  63 100 CALM      30.05R
PINEVILLE*     CLOUDY    64  64 100 MISG      30.12R
BECKLEY        FOG       60  59  96 CALM      30.09R VSB 1/4
BLUEFIELD      CLOUDY    63  59  87 CALM      30.10R
$$

VAZ002-007-008-TNZ017-027-036-066-071-250400
...SOUTHWEST VIRGINIA/EAST TENNESSEE...

CITY           SKY/WX    TMP DP  RH WIND       PRES   REMARKS
WISE*          CLOUDY    61  61 100 NW3       30.12R FOG
JONESVILLE*      N/A     63  63 100 CALM      30.09R
ABINGDON*      PTCLDY    66  63  88 CALM      30.07R
BRISTOL        MOCLDY    66  60  81 N3        30.05R
KNOXVILLE      PTCLDY    68  64  87 N8        30.03R
OAK RIDGE      CLEAR     68  62  81 CALM      30.06R
CROSSVILLE     PTCLDY    66  62  87 NE6       30.09R
NASHVILLE      PTCLDY    73  59  61 N6        30.03R
$$

...KEY TO REMARKS...
VSB - VISIBILITY IN MILES
WCI - WIND CHILL INDEX
HX  - HEAT INDEX

$$



USA.gov is the U.S. government's official web portal to all federal, state and local government web resources and services.